Location: Fenile
(46.0500°N, 9.5500°E)
Time: 13:04:10
(UTC+00:00)

Cosmos 1066 Rocket - Pass Details

Date: 03 March 2021
Orbit: 799 x 894 km, 81.2° (Epoch: 11 April)

Event Time Altitude Azimuth Distance (km) Brightness Sun altitude
Rises 19:35:55 0° 347° (NNW) 3,440 7.8 -25.6°
Reaches altitude 10° 19:38:19 10° 346° (NNW) 2,513 7.0 -26.0°
Maximum altitude 19:44:02 76° 262° (W) 906 4.3 -26.9°
Enters shadow 19:45:46 47° 188° (S) 1,154 4.7 -27.2°
